Simultaneous Nadir Overpasses (SNOs) Predictions

Prediction of SNOs between GOES-14 and NOAA-20 Satellite Orbit:

Table of predicted SNOs for the next 14.0 days since TLE Epoch: 6/27/2025
Index Date Time (GOES-14) GOES-14 Lat,Lon NOAA-20 Lat,Lon Distance(km) Time Diff (sec)
1 06/28/2025 20:51:45 0.45,-108.21 -0.46,-112.20 455.36 80
2 06/29/2025 20:35:42 0.42,-108.21 0.55,-107.68 60.53 80
3 07/02/2025 08:36:11 -0.45,-108.16 -0.38,-108.44 31.33 80
4 07/03/2025 08:20:08 -0.42,-108.16 -1.39,-103.91 484.34 80
5 07/04/2025 20:39:29 0.49,-108.18 0.26,-109.24 120.57 80
6 07/05/2025 20:23:25 0.46,-108.18 1.21,-104.70 395.14 80
7 07/07/2025 08:42:38 -0.53,-108.14 -0.10,-110.00 212.72 80
8 07/08/2025 08:26:35 -0.50,-108.13 -1.11,-105.48 302.51 80
9 07/09/2025 20:45:55 0.58,-108.14 -0.02,-110.80 303.51 80
10 07/10/2025 20:29:52 0.55,-108.13 0.94,-106.27 211.89 80
